Mount Carmel, IL

5:06 AM CDT on July 24, 2017 (GMT -0500)
Mount Carmel Municipal

Weather History for KAJG - April, 2013

Change the Weather History Date:

Sunday, April 28, 2013

  Actual Average (KLWV) Record (KLWV)
Temperature  
Mean Temperature 57 °F -  
Max Temperature 59 °F 68 °F 82 °F (2012)
Min Temperature 55 °F 47 °F 33 °F (1992)
Degree Days  
Heating Degree Days 8    
Growing Degree Days 7 (Base 50)    
Moisture  
Dew Point 55 °F    
Average Humidity 91    
Maximum Humidity 100    
Minimum Humidity 82    
Precipitation  
Precipitation 0.00 in - - ()
Sea Level Pressure  
Sea Level Pressure 29.89 in    
Wind  
Wind Speed 8 mph (SW)    
Max Wind Speed 16 mph    
Max Gust Speed -    
Visibility 5 miles    
Events Rain , Thunderstorm    
Averages and records for this station are not official NWS values.
T = Trace of Precipitation, MM = Missing Value Source: NWS Daily Summary

Daily Weather History Graph

Daily Weather History Graph

Search for Another Location

Airport or City:

Trip Planner

Search our weather history database for the weather conditions in past years. The results will help you decide how hot, cold, wet, or windy it might be!

Date:

Astronomy

Apr. 28, 2013 Rise Set
Actual Time 5:56 AM CDT 7:40 PM CDT
Civil Twilight 5:28 AM CDT 8:08 PM CDT
Nautical Twilight 4:54 AM CDT 8:43 PM CDT
Astronomical Twilight 4:17 AM CDT 9:20 PM CDT
Moon 11:09 PM CDT (4/28) 8:14 AM CDT (4/28)
Length of Visible Light 14h 40m
Length of Day
13h 43m
Waning Gibbous, 88% of the Moon is Illuminated
Apr 28
Waning Gibbous
May 2
Last Quarter
May 9
New
May 17
First Quarter
May 24
Full

Hourly Weather History & Observations

Time (CDT) Temp. Dew Point Humidity Pressure Visibility Wind Dir Wind Speed Gust Speed Precip Events Conditions
12:15 AM 59.0 °F 55.4 °F 88% 29.91 in 10.0 mi SE 6.9 mph - N/A   Overcast
12:35 AM 59.0 °F 55.4 °F 88% 29.90 in 10.0 mi SE 6.9 mph - N/A   Overcast
12:55 AM 59.0 °F 55.4 °F 88% 29.89 in 10.0 mi SE 6.9 mph - N/A   Overcast
1:15 AM 59.0 °F 55.4 °F 88% 29.88 in 4.0 mi SE 5.8 mph - N/A   Overcast
1:35 AM 57.2 °F 55.4 °F 94% 29.88 in 4.0 mi SE 3.5 mph - N/A   Overcast
1:55 AM 57.2 °F 55.4 °F 94% 29.88 in 4.0 mi SSE 3.5 mph - N/A   Drizzle
2:15 AM 57.2 °F 55.4 °F 94% 29.87 in 3.0 mi SE 4.6 mph - N/A Rain Light Rain
2:35 AM 57.2 °F 55.4 °F 94% 29.86 in 3.0 mi SE 5.8 mph - N/A Rain Light Rain
2:55 AM 59.0 °F 55.4 °F 88% 29.85 in 5.0 mi SSE 6.9 mph - N/A Rain Light Rain
3:15 AM 59.0 °F 57.2 °F 94% 29.85 in 7.0 mi SSE 9.2 mph - N/A Thunderstorm Overcast
3:35 AM 59.0 °F 57.2 °F 94% 29.84 in 7.0 mi South 9.2 mph - N/A Rain , Thunderstorm Rain
3:55 AM 59.0 °F 55.4 °F 88% 29.84 in 2.5 mi South 4.6 mph - N/A Rain Rain
4:15 AM 59.0 °F 55.4 °F 88% 29.85 in 2.5 mi SSW 4.6 mph - N/A Rain Light Rain
4:35 AM 59.0 °F 55.4 °F 88% 29.85 in 3.0 mi SSW 4.6 mph - N/A Rain Light Rain
4:55 AM 59.0 °F 57.2 °F 94% 29.84 in 2.5 mi South 5.8 mph - N/A   Light Drizzle
5:15 AM 59.0 °F 57.2 °F 94% 29.85 in 2.5 mi SSW 5.8 mph - N/A Thunderstorm Overcast
5:35 AM 59.0 °F 57.2 °F 94% 29.85 in 3.0 mi SW 8.1 mph - N/A   Light Drizzle
5:55 AM 59.0 °F 57.2 °F 94% 29.86 in 2.5 mi SW 9.2 mph - N/A   Overcast
6:15 AM 59.0 °F 57.2 °F 94% 29.86 in 4.0 mi WSW 8.1 mph - N/A   Overcast
6:35 AM 59.0 °F 55.4 °F 88% 29.87 in 5.0 mi WSW 6.9 mph - N/A   Overcast
6:55 AM 59.0 °F 55.4 °F 88% 29.87 in 7.0 mi WSW 8.1 mph - N/A   Overcast
7:15 AM 59.0 °F 55.4 °F 88% 29.87 in 10.0 mi WSW 10.4 mph - N/A   Overcast
7:35 AM 59.0 °F 55.4 °F 88% 29.87 in 10.0 mi WSW 9.2 mph - N/A   Overcast
8:15 AM 59.0 °F 55.4 °F 88% 29.87 in 10.0 mi WSW 11.5 mph - N/A   Overcast
8:35 AM 59.0 °F 55.4 °F 88% 29.88 in 10.0 mi WSW 13.8 mph - N/A   Overcast
8:55 AM 57.2 °F 55.4 °F 94% 29.88 in 10.0 mi West 16.1 mph - N/A   Overcast
9:15 AM 57.2 °F 55.4 °F 94% 29.88 in 10.0 mi WSW 12.7 mph - N/A   Overcast
9:35 AM 57.2 °F 55.4 °F 94% 29.88 in 10.0 mi West 11.5 mph - N/A   Overcast
9:55 AM 59.0 °F 55.4 °F 88% 29.88 in 10.0 mi WSW 11.5 mph - N/A   Overcast
10:15 AM 59.0 °F 55.4 °F 88% 29.89 in 7.0 mi West 13.8 mph - N/A   Overcast
10:35 AM 59.0 °F 55.4 °F 88% 29.89 in 10.0 mi WSW 10.4 mph - N/A   Overcast
10:55 AM 59.0 °F 55.4 °F 88% 29.90 in 10.0 mi WSW 11.5 mph - N/A   Overcast
11:15 AM 59.0 °F 55.4 °F 88% 29.90 in 10.0 mi WSW 12.7 mph - N/A   Overcast
11:35 AM 59.0 °F 53.6 °F 82% 29.90 in 10.0 mi WSW 10.4 mph - N/A   Overcast
11:55 AM 59.0 °F 53.6 °F 82% 29.90 in 10.0 mi West 12.7 mph - N/A   Overcast
12:15 PM 59.0 °F 53.6 °F 82% 29.90 in 5.0 mi West 10.4 mph - N/A   Overcast
12:35 PM 59.0 °F 55.4 °F 88% 29.90 in 4.0 mi West 11.5 mph - N/A   Overcast
12:55 PM 59.0 °F 55.4 °F 88% 29.90 in 4.0 mi West 9.2 mph - N/A   Overcast
1:15 PM 59.0 °F 55.4 °F 88% 29.90 in 3.0 mi West 10.4 mph - N/A   Overcast
1:55 PM 59.0 °F 55.4 °F 88% 29.90 in 1.2 mi WSW 10.4 mph - N/A   Overcast
2:15 PM 59.0 °F 55.4 °F 88% 29.91 in 2.0 mi WSW 9.2 mph - N/A   Overcast
2:35 PM 59.0 °F 55.4 °F 88% 29.91 in 1.8 mi WSW 8.1 mph - N/A   Overcast
2:55 PM 59.0 °F 55.4 °F 88% 29.90 in 4.0 mi WSW 8.1 mph - N/A   Overcast
3:15 PM 59.0 °F 55.4 °F 88% 29.90 in 7.0 mi WSW 9.2 mph - N/A   Overcast
3:35 PM 59.0 °F 55.4 °F 88% 29.90 in 3.0 mi WSW 8.1 mph - N/A   Overcast
3:55 PM 59.0 °F 55.4 °F 88% 29.89 in 1.2 mi WSW 9.2 mph - N/A Rain Light Rain
4:15 PM 59.0 °F 55.4 °F 88% 29.89 in 2.5 mi WSW 9.2 mph - N/A   Overcast
4:35 PM 59.0 °F 55.4 °F 88% 29.89 in 1.8 mi West 10.4 mph - N/A   Overcast
4:55 PM 59.0 °F 55.4 °F 88% 29.89 in 2.0 mi West 10.4 mph - N/A   Overcast
5:15 PM 59.0 °F 55.4 °F 88% 29.89 in 3.0 mi West 9.2 mph - N/A   Overcast
5:35 PM 59.0 °F 55.4 °F 88% 29.90 in 2.5 mi West 10.4 mph - N/A   Overcast
5:55 PM 57.2 °F 55.4 °F 94% 29.90 in 3.0 mi West 9.2 mph - N/A   Overcast
6:15 PM 57.2 °F 55.4 °F 94% 29.90 in 4.0 mi West 6.9 mph - N/A   Overcast
6:35 PM 59.0 °F 55.4 °F 88% 29.90 in 5.0 mi West 5.8 mph - N/A   Overcast
6:55 PM 59.0 °F 55.4 °F 88% 29.90 in 5.0 mi West 6.9 mph - N/A   Overcast
7:35 PM 57.2 °F 55.4 °F 94% 29.91 in 4.0 mi WSW 8.1 mph - N/A   Overcast
7:55 PM 57.2 °F 55.4 °F 94% 29.91 in 4.0 mi West 6.9 mph - N/A   Overcast
8:15 PM 57.2 °F 55.4 °F 94% 29.92 in 4.0 mi SW 4.6 mph - N/A   Overcast
8:35 PM 57.2 °F 55.4 °F 94% 29.93 in 4.0 mi SW 5.8 mph - N/A   Overcast
8:55 PM 57.2 °F 55.4 °F 94% 29.93 in 2.5 mi SW 8.1 mph - N/A Rain Rain
9:15 PM 57.2 °F 55.4 °F 94% 29.94 in 3.0 mi SSW 6.9 mph - N/A   Light Drizzle
9:35 PM 57.2 °F 55.4 °F 94% 29.94 in 2.5 mi SW 5.8 mph - N/A Rain Light Rain
9:55 PM 57.2 °F 55.4 °F 94% 29.95 in 3.0 mi SW 5.8 mph - N/A   Overcast
10:15 PM 57.2 °F 55.4 °F 94% 29.95 in 3.0 mi SW 6.9 mph - N/A   Overcast
10:35 PM 57.2 °F 55.4 °F 94% 29.95 in 4.0 mi SW 4.6 mph - N/A   Overcast
10:55 PM 55.4 °F 55.4 °F 100% 29.95 in 4.0 mi SW 5.8 mph - N/A   Overcast
11:15 PM 55.4 °F 55.4 °F 100% 29.95 in 4.0 mi SW 5.8 mph - N/A   Overcast
11:35 PM 55.4 °F 53.6 °F 94% 29.95 in 5.0 mi SW 6.9 mph - N/A   Overcast
11:55 PM 55.4 °F 53.6 °F 94% 29.95 in 4.0 mi SW 5.8 mph - N/A   Overcast